Location: Newark
(46.7636°N, 1.8358°W)
Time: 16:34:21
(UTC+00:00)

Vanguard 1 Rocket - Pass Details

Date: 30 October 2019
Orbit: 651 x 4225 km, 34.3° (Epoch: 14 November)

Event Time Altitude Azimuth Distance (km) Brightness Sun altitude
Rises 10:52:01 0° 258° (WSW) 4,927 11.1 28.0°
Reaches altitude 10° 10:54:44 10° 253° (WSW) 4,288 10.9 28.2°
Maximum altitude 11:06:51 52° 181° (S) 3,365 11.7 28.7°
Drops below altitude 10° 11:28:24 10° 115° (ESE) 7,217 12.5 29.3°
Sets 11:34:47 0° 111° (ESE) 8,426 12.6 29.4°
